RH
83 82 83 82 83 84 84 85 84 84 84 85 87 88 90 93 87 53 18 16 30 83 69 62 63 45 46 47 40 38 50 49 40 40 32 28 27 25 29 44 41 42 49 51 57
83 82 82 81 82 84 85 86 86 86 85 86 86 87 90 94 59 27 29 61 78 83 31 32 31 36 42 41 32 32 46 38 31 30 30 25 24 24 30 47 55 51 52 60 67
83 83 81 80 79 82 85 85 85 86 85 85 86 87 90 94 33 18 63 72 81 76 16 15 14 12 13 12 15 30 27 24 20 22 25 27 25 24 28 47 54 56 64 67 72
82 82 81 80 80 80 82 84 84 85 85 85 85 86 92 68 24 16 77 79 79 32 19 13 12 12 15 15 15 17 14 14 16 22 26 25 26 28 26 26 42 46 53 66 83
82 83 81 81 80 81 81 82 85 85 85 84 84 86 60 22 14 44 72 71 32 17 13 10 12 14 18 14 12 20 13 11 10 13 24 24 28 30 31 39 43 43 47 70 76
82 82 81 81 82 85 86 86 85 85 83 83 83 88 40 11 7 36 27 27 17 12 10 8 9 13 14 13 15 12 12 11 16 28 29 26 33 30 34 45 47 46 51 70 72
82 82 83 82 82 84 86 86 84 82 81 80 79 66 39 8 9 26 19 14 12 10 8 10 12 14 15 14 12 11 19 19 18 23 31 26 31 34 36 46 49 49 56 68 72
82 82 84 85 85 85 88 87 82 81 81 80 79 68 18 10 17 12 16 12 12 10 10 10 11 12 13 13 10 16 26 24 19 21 25 21 26 27 42 50 54 50 57 74 76
82 83 85 87 89 88 89 85 81 76 78 80 74 40 26 20 13 13 13 11 12 11 10 7 10 12 10 13 13 17 21 27 22 18 20 22 23 26 34 47 52 51 64 76 82
84 86 88 89 89 90 88 86 73 78 66 54 34 21 9 9 10 8 10 11 8 8 9 11 13 14 15 13 13 18 23 26 25 20 19 22 18 25 30 38 48 50 69 77 81
85 87 88 89 89 88 93 31 19 19 26 20 21 12 13 10 11 9 8 6 8 12 12 14 14 16 13 13 12 13 15 17 13 14 18 19 22 20 32 28 40 49 71 78 80
83 87 89 89 88 87 93 25 25 22 21 13 13 18 13 12 12 9 8 10 12 13 16 14 14 11 13 13 13 12 13 13 12 15 22 22 31 41 33 29 34 54 74 78 82
85 88 89 90 88 64 34 21 22 28 26 15 13 11 10 10 11 10 7 10 10 14 14 14 11 10 12 12 13 14 14 12 14 22 22 24 26 42 47 48 41 61 66 74 79
88 88 90 92 44 61 26 23 27 25 25 14 15 10 8 8 8 8 7 7 14 9 13 14 12 10 12 11 11 15 11 14 22 25 21 22 25 39 56 53 74 66 75 80 83
88 88 90 89 83 48 20 33 23 15 17 9 11 7 7 6 5 6 8 8 9 10 12 12 12 13 12 9 9 9 12 19 20 20 22 19 21 32 57 53 67 89 80 85 81
87 88 87 77 90 60 46 32 20 24 22 13 10 8 8 8 6 8 6 6 8 10 14 11 12 10 10 8 8 9 10 15 24 22 21 22 28 31 54 52 64 88 86 85 86
87 88 87 72 23 45 37 22 24 32 15 11 11 10 10 9 8 7 8 9 9 12 14 13 12 11 10 12 11 10 14 18 20 23 21 28 35 45 63 84 78 71 73 84 70
87 90 91 81 83 47 28 23 33 19 20 14 12 12 13 10 8 8 10 10 11 14 20 18 16 12 10 11 12 14 12 18 20 23 22 26 30 88 74 72 56 62 64 52 46
90 93 91 77 71 41 28 34 28 24 17 14 13 15 15 12 10 11 11 10 9 12 12 21 17 13 11 10 10 18 17 13 22 40 24 30 73 79 72 64 58 64 61 57 88
99 93 63 55 53 32 32 41 29 21 14 14 22 17 16 14 15 18 12 11 10 11 14 13 15 11 10 12 13 11 13 16 24 30 32 28 52 86 91 68 68 65 63 66 80
93 61 32 49 29 29 35 35 25 15 15 20 23 21 16 15 19 18 18 16 15 12 12 17 16 12 13 15 13 13 18 24 22 28 26 33 43 47 81 77 75 72 64 64 83
90 56 37 34 29 41 33 28 28 16 18 17 19 18 17 15 19 19 22 21 14 18 15 17 17 18 14 13 15 13 14 18 23 21 45 40 38 58 68 73 71 69 63 74 78
67 72 48 23 32 31 28 19 18 14 13 17 19 17 18 15 17 20 20 15 17 25 31 25 23 19 15 16 14 24 22 25 32 35 44 39 37 63 65 73 68 67 68 71 64
88 70 48 29 34 22 28 22 19 15 14 16 16 19 21 22 22 23 19 16 16 25 67 36 32 20 20 18 22 23 23 24 29 34 38 34 46 69 72 76 69 62 67 69 56
88 54 56 48 31 30 25 23 22 19 18 18 21 17 17 27 23 23 29 23 17 37 32 28 21 49 27 23 21 21 20 21 26 28 30 28 57 55 56 64 62 59 60 63 61
56 60 46 50 47 43 46 25 21 17 20 23 20 18 20 21 20 31 37 35 27 24 30 47 43 40 27 26 27 22 19 25 24 31 35 57 62 56 64 65 62 57 54 62 70
74 68 57 58 46 45 39 32 27 27 24 24 28 25 33 31 27 30 31 34 28 53 31 46 46 54 48 38 31 23 24 25 30 36 46 57 45 62 72 67 60 59 57 63 70
Wind_Speed
18 18 18 19 18 18 18 19 18 18 17 17 17 19 18 19 18 4 5 8 6 16 10 10 4 5 5 4 5 3 4 2 4 3 7 6 3 8 2 8 4 8 7 13 19
18 18 18 19 19 18 18 18 18 17 15 16 16 18 16 16 4 6 9 8 12 18 6 8 5 7 4 5 4 5 4 9 8 7 7 1 7 7 5 5 3 5 14 22 22
18 19 19 20 20 20 19 19 19 19 18 16 16 17 14 9 4 7 5 11 16 15 2 3 3 5 4 3 4 4 5 7 9 16 15 5 6 7 10 4 7 20 18 22 20
18 19 20 20 21 21 20 20 19 19 18 16 16 17 15 3 1 3 12 12 11 7 2 2 1 2 3 4 2 4 9 5 8 9 6 8 4 3 4 6 14 22 23 20 18
19 20 20 21 21 21 21 21 19 19 18 17 14 14 5 5 9 4 13 11 6 4 3 3 2 2 2 4 8 1 6 9 12 8 9 8 4 5 3 4 15 16 19 17 16
20 20 21 21 21 21 21 21 20 19 19 16 12 9 2 4 3 8 8 7 5 4 3 5 5 4 5 5 1 6 8 12 5 3 3 6 4 3 3 14 15 16 16 14 16
20 21 21 22 23 22 22 22 22 21 19 15 9 2 0 15 3 4 7 5 4 6 5 6 4 2 2 4 3 5 7 8 5 7 5 4 3 6 6 16 18 17 11 12 11
21 21 23 23 23 24 24 25 24 20 17 12 4 2 9 5 2 3 5 6 4 6 4 6 6 4 4 2 8 6 4 6 3 2 4 8 8 8 12 18 17 14 12 10 11
22 23 23 23 24 24 25 29 25 12 3 6 4 3 11 8 3 5 8 8 3 5 6 5 4 3 6 4 6 6 4 4 11 3 4 5 5 2 16 18 17 15 12 11 11
21 22 22 23 24 24 28 27 12 5 2 4 3 2 5 2 5 4 5 5 5 4 7 2 6 3 5 6 5 4 4 4 6 5 5 6 6 7 17 18 20 16 11 12 13
21 22 23 24 24 22 16 7 7 4 2 6 4 5 5 7 5 5 4 6 2 2 4 4 5 4 11 8 4 3 6 7 17 10 6 5 6 7 11 13 14 15 12 11 10
22 22 23 25 24 23 1 3 4 0 11 9 12 10 13 4 5 11 3 3 3 4 2 6 5 9 5 5 5 6 8 14 12 12 0 3 2 2 2 8 14 16 11 11 8
21 21 23 26 28 3 2 5 5 5 3 9 7 7 7 11 10 13 8 2 5 3 3 6 10 4 4 7 5 5 7 13 12 4 4 3 6 4 2 5 4 5 5 5 11
20 20 21 29 2 5 5 6 9 3 5 10 6 11 6 9 7 8 11 8 2 9 6 7 6 7 5 7 7 6 11 9 5 4 4 3 6 5 6 6 2 10 8 8 8
20 19 18 11 5 4 5 11 9 5 3 6 5 1 3 11 8 5 4 5 10 6 7 11 4 3 4 8 5 12 4 7 2 3 2 3 4 8 4 6 3 7 8 8 6
21 18 18 1 2 9 10 11 4 7 9 8 3 2 5 3 5 1 4 6 4 5 3 9 3 4 8 6 5 3 5 6 5 3 3 3 5 6 3 7 9 19 21 19 3
23 19 11 3 6 3 7 5 6 5 5 6 3 3 2 3 2 5 5 5 7 4 5 5 6 4 4 5 3 7 8 5 5 7 6 3 1 5 8 4 21 23 25 28 19
24 25 7 7 4 3 4 7 4 6 7 6 5 6 2 2 5 4 4 4 4 5 4 6 9 4 4 5 4 1 8 8 4 3 6 2 3 4 3 10 18 20 19 21 22
26 2 4 6 11 1 6 3 9 7 4 6 8 5 7 6 4 2 6 7 8 11 10 6 8 5 5 4 7 2 3 6 8 3 4 2 4 3 2 6 10 11 12 4 10
4 4 5 4 12 5 6 5 5 5 5 5 2 3 6 6 6 5 5 3 5 10 2 7 3 6 5 2 1 6 7 3 4 4 3 4 3 6 10 12 10 9 9 7 4
3 4 3 5 4 6 5 7 5 10 2 2 2 3 5 4 2 3 4 2 2 5 8 6 4 9 3 4 5 2 1 6 7 4 7 2 7 7 15 10 10 9 11 10 8
3 2 1 2 5 1 4 7 5 6 3 5 4 8 7 6 2 2 1 1 8 4 4 5 7 7 11 5 3 3 4 6 7 5 1 4 7 3 8 5 7 9 13 3 5
3 4 4 2 3 2 4 4 6 5 8 5 5 4 2 6 3 3 3 3 8 7 1 5 1 2 11 8 5 1 2 6 5 4 5 6 7 1 1 6 9 12 9 4 2
2 3 4 3 1 5 0 5 5 6 8 7 7 3 2 1 4 1 4 3 7 6 4 7 3 6 8 8 3 5 3 4 6 4 5 6 4 6 10 13 16 15 6 2 5
1 3 3 3 6 4 5 3 5 5 4 7 4 8 6 4 1 3 2 5 5 8 6 6 3 2 4 3 3 3 4 7 4 5 5 6 9 10 19 22 19 10 5 5 6
1 2 4 3 4 3 5 4 8 10 6 3 3 3 4 5 6 3 2 0 3 6 5 5 1 4 1 1 3 3 4 2 5 4 3 5 7 7 5 4 6 9 6 5 5
3 3 2 4 4 2 3 5 6 4 3 1 1 5 6 5 6 5 6 3 4 1 1 3 3 3 5 4 1 4 2 2 2 2 8 6 10 3 5 11 14 10 8 8 6
Wind_Direction
354 352 347 344 340 337 334 331 331 333 333 327 327 324 331 332 317 170 241 218 168 168 116 130 219 187 180 239 211 145 57 272 266 238 256 147 154 151 149 135 195 187 151 150 139
351 347 344 342 338 334 331 328 328 327 326 325 327 321 329 334 325 277 229 162 136 161 154 171 186 173 222 221 218 132 138 218 214 221 240 121 174 158 115 159 27 88 107 132 137
349 343 342 339 335 332 329 330 328 323 324 326 323 319 324 318 327 253 135 153 149 171 198 171 201 191 223 211 188 168 209 214 240 236 236 160 232 151 129 195 203 153 142 148 149
346 341 339 337 333 331 329 324 320 320 319 321 318 318 321 285 249 291 122 134 144 173 228 242 201 217 235 293 276 267 246 216 240 217 213 206 155 93 142 233 159 162 150 151 150
343 340 337 334 330 327 323 321 319 316 312 309 313 321 334 357 255 108 115 126 130 144 213 228 182 215 295 300 327 224 296 301 302 290 207 143 145 125 131 165 153 160 150 153 166
341 338 334 332 328 325 321 317 315 309 303 302 308 316 344 301 269 143 134 136 148 165 223 186 217 187 267 259 298 288 288 296 297 56 109 173 91 81 204 146 152 170 172 149 165
341 337 333 331 328 325 319 314 307 304 298 294 295 278 124 236 97 140 162 186 191 171 205 224 151 155 242 303 278 281 333 331 291 161 188 105 7 185 182 153 173 172 186 149 161
340 337 333 329 327 324 318 309 303 302 296 276 222 166 249 245 292 242 155 286 216 210 244 249 180 236 218 282 360 347 44 359 182 193 230 130 250 173 164 162 189 179 182 157 166
339 336 332 328 325 323 317 307 304 307 272 131 136 154 265 300 237 237 154 218 151 222 238 253 158 191 21 61 8 12 266 308 314 201 157 211 229 232 173 181 187 190 177 168 158
338 334 331 328 325 325 319 302 287 303 131 202 271 4 281 304 311 283 211 169 240 311 352 88 53 71 37 64 236 264 313 286 254 295 283 238 286 116 183 183 193 189 157 178 167
336 333 330 326 323 324 339 354 11 355 43 227 206 261 283 291 307 307 314 148 169 99 253 355 69 220 241 209 187 284 285 280 282 272 285 358 354 339 180 185 193 190 169 183 177
335 332 329 324 320 321 329 32 81 167 301 253 246 250 259 84 304 287 156 162 137 228 131 10 242 238 223 226 194 214 262 273 287 282 299 36 280 355 135 218 198 184 171 182 157
332 331 330 323 318 331 304 246 353 333 227 291 224 226 215 150 209 250 145 187 171 204 211 186 244 336 219 273 240 227 204 261 232 352 315 337 312 348 84 332 157 173 199 175 176
329 329 333 326 18 328 278 308 320 236 46 274 245 261 188 150 269 193 191 157 137 212 177 233 266 232 290 254 175 246 211 234 232 64 257 55 278 323 335 324 103 175 159 163 150
324 326 330 329 296 297 298 320 317 69 329 252 242 216 199 164 194 239 175 107 192 211 121 244 269 302 277 244 156 235 181 204 263 160 100 326 68 272 7 298 236 51 50 49 110
318 320 329 117 265 248 314 310 53 50 247 305 265 222 128 237 196 76 135 77 158 200 226 240 231 189 225 272 214 325 103 58 60 115 52 255 130 285 350 322 60 70 57 24 56
314 310 306 268 238 331 312 32 53 161 313 290 350 349 158 307 291 164 146 139 167 135 278 312 266 251 209 285 7 64 53 351 349 3 213 199 22 71 293 85 110 108 102 105 264
314 309 254 208 243 284 39 55 179 221 257 305 321 329 311 177 234 207 143 220 208 111 123 176 306 195 173 180 236 143 144 154 208 221 266 250 6 309 352 106 121 133 152 170 213
318 311 262 248 187 69 81 119 201 216 278 350 336 48 341 346 229 160 185 223 201 170 173 160 267 260 234 193 136 255 206 190 106 15 55 226 105 43 294 149 163 181 185 161 168
316 335 262 147 150 92 82 221 243 211 7 1 338 30 357 322 13 24 179 294 274 201 162 216 291 207 280 170 212 161 161 86 12 145 226 291 190 204 216 199 210 188 207 209 187
344 353 278 175 126 54 160 227 259 283 167 335 309 312 252 267 268 313 282 139 282 286 160 136 120 264 117 196 207 10 257 51 116 123 161 193 260 215 207 211 213 222 230 208 198
338 325 298 194 74 81 162 194 239 274 71 251 228 214 217 219 241 295 287 261 321 261 142 220 154 239 220 278 286 197 183 144 131 246 8 151 264 259 191 245 258 246 239 232 211
342 271 320 73 135 243 267 257 235 243 255 235 236 217 262 203 209 208 329 297 350 41 57 178 334 292 326 352 360 230 159 101 105 79 187 133 261 116 198 232 237 242 252 275 106
347 350 325 57 330 141 183 271 251 245 239 189 230 179 207 104 355 264 341 322 328 354 61 89 116 152 198 218 187 149 132 120 122 108 175 219 237 238 215 223 238 246 253 265 215
135 260 199 260 267 235 173 279 297 317 249 175 221 205 174 151 11 126 357 325 327 348 20 81 75 238 218 259 310 256 150 159 162 171 151 236 199 229 212 209 216 229 233 234 237
260 333 344 302 298 276 178 233 239 253 228 295 197 66 148 141 172 187 157 197 265 334 31 356 6 358 8 36 293 267 298 113 120 139 115 152 254 226 223 180 229 238 237 233 260
305 306 93 281 321 39 210 259 260 327 293 183 297 103 97 178 185 213 200 190 191 222 66 70 103 56 278 331 314 352 277 18 91 129 139 168 230 198 202 206 217 215 204 232 231